CREW DRAGON DEMO-1 DEB

Last updated on Wed Jul 07 2021 18:13:19 GMT+0000 (Coordinated Universal Time)

1 44064U 19011B 21188.21789381 .00460214 11621-3 50648-3 0 9996 2 44064 51.6150 130.0947 0002281 119.9575 240.1665 16.09066141133591

Satellite not in orbit

CREW DRAGON DEMO-1 DEB